Weather History for KPRN - October, 2013

Change the Weather History Date:

Friday, October 18, 2013

  Actual Average Record
Temperature  
Mean Temperature 70 °F -  
Max Temperature 77 °F 78 °F 88 °F (1972)
Min Temperature 62 °F 54 °F 33 °F (1977)
Cooling Degree Days 5    
Growing Degree Days 20 (Base 50)    
Moisture  
Dew Point 59 °F    
Average Humidity 77    
Maximum Humidity 93    
Minimum Humidity 48    
Precipitation  
Precipitation 0.04 in - - ()
Sea Level Pressure  
Sea Level Pressure 29.98 in    
Wind  
Wind Speed 4 mph (North)    
Max Wind Speed 7 mph    
Max Gust Speed -    
Visibility 10 miles    
Events Rain    
Averages and records for this station are not official NWS values.
T = Trace of Precipitation, MM = Missing Value Source: NWS Daily Summary

Daily Weather History Graph

Daily Weather History Graph

Search for Another Location

Airport or City:

Trip Planner

Search our weather history database for the weather conditions in past years. The results will help you decide how hot, cold, wet, or windy it might be!

Date:

Astronomy

Oct. 18, 2013 Rise Set
Actual Time 6:52 AM CDT 6:10 PM CDT
Civil Twilight 6:27 AM CDT 6:35 PM CDT
Nautical Twilight 5:59 AM CDT 7:03 PM CDT
Astronomical Twilight 5:30 AM CDT 7:31 PM CDT
Moon 6:01 PM CDT (10/18) 6:27 AM CDT (10/18)
Length of Visible Light 12h 07m
Length of Day
11h 18m
Full, 100% of the Moon is Illuminated
Oct 18
Full
Oct 18
Full
Oct 26
Last Quarter
Nov 3
New
Nov 9
First Quarter

Hourly Weather History & Observations

Time (CDT) Temp. Dew Point Humidity Pressure Visibility Wind Dir Wind Speed Gust Speed Precip Events Conditions
12:56 AM 64.9 °F 62.1 °F 90% 29.95 in 10.0 mi NNW 5.8 mph - N/A   Overcast
1:56 AM 64.9 °F 61.0 °F 87% 29.96 in 10.0 mi Calm Calm - N/A   Overcast
2:56 AM 64.0 °F 61.0 °F 90% 29.96 in 10.0 mi Calm Calm - N/A   Overcast
3:56 AM 64.0 °F 61.0 °F 90% 29.96 in 10.0 mi NW 3.5 mph - N/A   Overcast
4:45 AM 64.4 °F 60.8 °F 88% 29.97 in 10.0 mi North 4.6 mph - N/A   Overcast
4:56 AM 64.0 °F 61.0 °F 90% 29.96 in 10.0 mi North 3.5 mph - N/A   Overcast
5:56 AM 64.0 °F 61.0 °F 90% 29.97 in 10.0 mi North 4.6 mph - N/A   Overcast
6:33 AM 64.4 °F 60.8 °F 88% 29.99 in 10.0 mi North 4.6 mph - N/A   Overcast
6:56 AM 63.0 °F 61.0 °F 93% 29.98 in 10.0 mi North 6.9 mph - N/A   Overcast
7:56 AM 64.0 °F 61.0 °F 90% 30.00 in 10.0 mi North 4.6 mph - N/A   Overcast
8:34 AM 64.4 °F 60.8 °F 88% 30.02 in 10.0 mi NNE 5.8 mph - N/A   Overcast
8:56 AM 64.9 °F 60.1 °F 84% 30.03 in 10.0 mi North 5.8 mph - N/A   Overcast
9:26 AM 66.2 °F 59.0 °F 78% 30.04 in 10.0 mi North 4.6 mph - N/A   Overcast
9:56 AM 66.9 °F 59.0 °F 76% 30.02 in 10.0 mi North 6.9 mph - N/A   Overcast
10:56 AM 69.1 °F 57.9 °F 68% 30.03 in 10.0 mi Calm Calm - N/A   Overcast
11:56 AM 71.1 °F 57.9 °F 63% 30.01 in 10.0 mi Variable 3.5 mph - N/A   Overcast
12:26 PM 73.4 °F 57.2 °F 57% 30.01 in 10.0 mi Calm Calm - N/A   Scattered Clouds
12:38 PM 71.6 °F 57.2 °F 60% 30.00 in 10.0 mi Variable 4.6 mph - N/A   Mostly Cloudy
12:48 PM 73.4 °F 57.2 °F 57% 29.99 in 10.0 mi Variable 3.5 mph - N/A   Scattered Clouds
12:56 PM 75.0 °F 57.9 °F 55% 29.98 in 10.0 mi WNW 5.8 mph - N/A   Scattered Clouds
1:56 PM 75.9 °F 55.9 °F 50% 29.96 in 10.0 mi North 4.6 mph - N/A   Partly Cloudy
2:56 PM 77.0 °F 55.9 °F 48% 29.94 in 10.0 mi NE 5.8 mph - N/A   Partly Cloudy
3:56 PM 75.0 °F 57.0 °F 53% 29.94 in 10.0 mi NNW 6.9 mph - N/A   Clear
4:56 PM 72.0 °F 57.0 °F 59% 29.94 in 10.0 mi NNW 5.8 mph - N/A   Clear
5:56 PM 69.1 °F 59.0 °F 70% 29.93 in 10.0 mi NNE 3.5 mph - N/A   Clear
6:56 PM 68.0 °F 60.1 °F 76% 29.93 in 10.0 mi Calm Calm - N/A   Scattered Clouds
7:56 PM 66.0 °F 60.1 °F 81% 29.96 in 10.0 mi NNW 3.5 mph - 0.01 in Rain Light Rain
8:56 PM 64.9 °F 61.0 °F 87% 29.97 in 10.0 mi Calm Calm - 0.01 in Rain Light Rain
9:56 PM 63.0 °F 61.0 °F 93% 29.99 in 10.0 mi WNW 3.5 mph - 0.02 in   Scattered Clouds
10:56 PM 63.0 °F 60.1 °F 90% 29.99 in 10.0 mi NNW 3.5 mph - N/A   Clear
11:56 PM 62.1 °F 59.0 °F 90% 29.97 in 10.0 mi Calm Calm - N/A   Clear